Location: City of Moscow
(46.7306°N, 116.9989°W)
Time: 13:41:21
(UTC+00:00)

Cosmos 1626 Rocket - Pass Details

Date: 15 March 2026
Orbit: 595 x 624 km, 82.5° (Epoch: 18 April)

Event Time Altitude Azimuth Distance (km) Brightness Sun altitude
Rises 11:13:03 0° 5° (N) 2,901 7.5 -28.4°
Reaches altitude 10° 11:16:06 10° 28° (NNE) 1,983 6.8 -27.9°
Maximum altitude 11:18:50 16° 66° (ENE) 1,612 6.5 -27.5°
Drops below altitude 10° 11:21:32 10° 105° (ESE) 1,962 6.7 -27.1°
Sets 11:24:30 0° 127° (SE) 2,854 7.3 -26.6°
